Regional Weather Roundup
Issued by NWS Upton, NY

Current Version | Previous Version | Text Only | Print | Product List | Glossary On
Versions: 1 2 3 4 5 6 7 8 9 10 11 12 13 14 15 16 17 18 19 20 21 22 23 24 25 26 27 28 29 30 31 32 33 34 35 36 37 38 39 40 41 42 43 44 45 46 47 48 49 50
000 ASUS41 KOKX 240605 RWROKX Regional Weather Roundup National Weather Service New York NY 200 AM EDT TUE APR 24 2018 Note: "FAIR" indicates few or no clouds below 12,000 feet with no significant weather and/or obstructions to visibility. NYZ071-072-176-178-NJZ106-104-240700- New York City Metro Area CITY SKY/WX TMP DP RH WIND PRES REMARKS Central Park FAIR 52 32 46 VRB3 30.43F Bronx Bot Gard N/A 46 39 76 E1 30.43R Bronx Lehman C N/A 50 41 71 SE2 N/A LaGuardia Arpt FAIR 50 42 74 S5 30.41F Queens College N/A 48 43 81 S5 N/A Kennedy Intl FAIR 44 43 96 CALM 30.43F Breezy Point N/A 46 N/A N/A S2 N/A Brooklyn Coll N/A 48 43 81 SE2 N/A Staten Island N/A 48 39 71 S3 N/A Newark/Liberty FAIR 49 39 68 CALM 30.41F Teterboro FAIR 47 39 74 CALM 30.41S $$ NYZ177-179-078>081-240700- Long Island New York CITY SKY/WX TMP DP RH WIND PRES REMARKS Jones Beach N/A 45 N/A N/A MISG N/A Wantagh N/A 43 41 93 E2 N/A Hempstead N/A 45 41 87 CALM 30.44F Matinecock Pt N/A 45 N/A N/A SE5 N/A Farmingdale FAIR 42 39 89 CALM 30.43S MacArthur/ISP FAIR 41 39 93 SE3 30.42F Stony Brook N/A 45 41 87 S3 N/A Shirley FAIR 37 35 92 CALM 30.43F Mt Sinai Harb N/A N/A N/A N/A S3 N/A Westhampton FAIR 29 24 82 CALM 30.45F East Hampton FAIR 31 30 94 CALM 30.43F Southold N/A 39 39 100 S5 N/A Montauk N/A 46 39 76 S3 30.44F $$ NYZ052-065-067-240700- Hudson Valley CITY SKY/WX TMP DP RH WIND PRES REMARKS White Plains FAIR 42 38 85 CALM 30.40F Larchmont Harb N/A 45 N/A N/A N3 N/A Croton On Huds N/A 43 N/A N/A NE1 N/A Somers N/A 41 34 75 E3 N/A Brewster N/A 39 32 75 NW1 N/A Newburgh CLEAR 46 34 61 CALM 30.40F Montgomery FAIR 38 31 76 CALM 30.38F Otisville N/A 37 32 81 W1 N/A Warwick N/A 46 32 57 N1 N/A Suffern N/A 43 36 75 CALM N/A Poughkeepsie FAIR 40 30 67 CALM 30.39F Albany MOCLDY 52 24 33 S10 30.36S $$ NJZ001-105-106-008-010-013-015-019>022-104-240700- New Jersey CITY SKY/WX TMP DP RH WIND PRES REMARKS Newark/Liberty FAIR 49 39 68 CALM 30.41F Teterboro FAIR 47 39 74 CALM 30.41S Caldwell FAIR 43 38 82 CALM 30.41F Somerville FAIR 37 35 92 CALM 30.39F Linden FAIR 46 40 79 CALM 30.42F Perth Amboy N/A 48 N/A N/A CALM N/A Sussex FAIR 39 32 76 CALM 30.40F Andover N/A 41 36 82 CALM 30.39F Trenton FAIR 45 31 58 NE3 30.39F Millville FAIR 40 36 86 CALM 30.38F Atlantic City FAIR 38 35 89 CALM 30.40F Wrightstown NOT AVBL Toms River NOT AVBL Belmar FAIR 42 40 92 SE3 30.42F $$ PAZ047>061-062-071-240700- Eastern Pennsylvania CITY SKY/WX TMP DP RH WIND PRES REMARKS Philadelphia MOCLDY 47 33 58 E3 30.39F Allentown FAIR 50 22 33 CALM 30.38F Scranton FAIR 52 26 36 SE8 30.34F $$ CTZ002-004>006-009-010-012-RIZ004-006-007-MAZ004-011-015-240700- Southern New England In CT CITY SKY/WX TMP DP RH WIND PRES REMARKS Bradley Intl MOCLDY 42 31 64 S7 30.41F Hartford FAIR 43 33 68 S5 30.42F Danbury FAIR 37 31 78 CALM 30.42F Wtrbury/Oxford FAIR 40 33 76 CALM 30.41F Norwalk Harbor N/A 43 N/A N/A N2 N/A Bridgeport FAIR 42 38 85 CALM 30.43F Meriden FAIR 38 33 82 CALM 30.42F New Haven FAIR 38 35 89 CALM 30.43F Chester FAIR 39 34 81 CALM 30.42F Groton FAIR 37 36 96 CALM 30.43F Willimantic FAIR 35 29 78 CALM 30.44F In RI CITY SKY/WX TMP DP RH WIND PRES REMARKS Providence FAIR 42 37 82 S5 30.44F Block Island FAIR 43 39 86 S9 30.44F Westerly FAIR 35 34 96 CALM 30.45F In MA CITY SKY/WX TMP DP RH WIND PRES REMARKS Boston FAIR 45 26 47 SW8 30.42F Worcester FAIR 41 25 53 SW10 30.39F Westfield FAIR 42 26 53 S3 30.40F Provincetown FAIR 41 37 86 S8 30.44F Nantucket FAIR 37 37 100 S6 30.46F WCI 32 $$ ANZ330-335-338-340-345-350-353-355-240700- Coastal Marine Observations STATION/POSITION TIME SKY/WX TEMP WIND PRES VSBY WAVE AIR SEA DIR/SP/G HT/PER (UTC) (F) (DEG/KT/KT) (MB) (MI) (FT/S) NY Harb Entrance 0550 47 46 220/ 4/ 6 1030.2 1/ 8 20 S Fire Island 0550 46 44 140/ 8/ 8 1030.3 1/ 8 23 SSW Montauk P 0550 45 45 180/ 4/ 6 1030.9 1/ 9 15 E Barnegat Li 0530 47 N/A 1/14 Hudson Canyon 0550 49 47 140/ 6/ 6 1030.2 1/15 Kings Point 0536 46 49 180/ 2/ 4 1031.0 Execution Rocks NOT AVBL Western LI Sound NOT AVBL Central LI Sound 0530 44 100/ 2/ 4 N/A 0 Robbins Reef 0536 48 190/ 5/ 6 1030.7 $$ >>>>>>>>>>>>>>>>>>>>>>>>>>>> KEY <<<<<<<<<<<<<<<<<<<<<<<<<<< > < > SKY/WX - Sky Condition/Present Weather < > TMP - Temperature in Fahrenheit < > DP - Dew Point in Fahrenheit < > RH - Relative Humidity in Percent < > WIND - Direction (from) and Speed in MPH < > PRES - Mean Sea Level Pressure (inches of Hg) < > WCI - Wind Chill Index < > VSB - Visibility in Miles < > HX - Heat Index < > TC - Temperature in Celsius < > VRB - Varibale Wind Direction < > < >>>>>>>>>>>>>>>>>>>>>>>>>>>> KEY <<<<<<<<<<<<<<<<<<<<<<<<<<<

USA.gov is the U.S. government's official web portal to all federal, state and local government web resources and services.